Wind_Speed
13 14 15 16 15 15 14 13 13 12 12 11 11 11 11 10 9 9 8 7 7 7 7 8 8 7 8 8 8 7 7 7 7 7 7 6 6 6 5 5 5 5 5 5 6 6 7 8 8 9 9 9 10 10 9 10 11 11 13 12 12 12 12 11 12 12 12 12 12 12 13 14 15 16 16 17 17 17 16 16 16 17 17 18 19
14 14 14 15 16 16 15 14 13 12 12 13 13 12 11 10 9 9 8 8 8 7 7 7 7 7 8 8 7 6 6 7 6 6 6 6 6 6 5 5 5 5 5 5 6 6 6 7 7 8 9 9 10 10 10 10 10 11 12 12 12 12 13 13 13 12 12 12 12 12 13 14 15 16 16 16 16 16 16 17 17 18 18 19 19
15 14 14 14 15 16 16 15 14 13 13 13 14 13 12 12 11 10 10 9 9 8 7 7 7 8 8 8 8 7 7 7 6 6 6 6 6 5 5 6 5 5 5 5 5 5 6 6 6 7 8 8 9 9 9 10 9 9 11 12 12 13 13 13 13 13 12 12 12 12 13 14 15 15 16 15 16 17 17 17 17 17 18 18 17
16 15 15 15 15 16 15 16 15 15 14 14 13 13 14 14 12 12 11 10 10 9 9 8 8 8 8 8 8 7 7 7 7 7 7 7 7 6 6 6 5 5 5 6 5 5 5 6 6 6 7 8 8 8 9 9 8 8 9 10 10 11 12 12 13 13 13 12 12 13 13 13 14 14 14 14 14 16 17 17 17 16 17 17 16
17 16 16 16 15 15 15 15 15 15 15 14 14 14 15 14 13 13 13 12 12 11 10 10 10 9 9 9 9 8 8 8 8 8 8 8 8 7 7 7 6 5 6 6 6 6 6 6 6 6 7 7 8 9 9 9 9 9 9 9 10 10 11 11 12 13 14 13 13 12 13 13 13 13 13 12 13 15 16 16 15 15 15 15 15
18 17 17 16 16 15 15 15 15 15 15 15 15 15 15 14 13 14 14 14 13 12 11 12 12 11 10 10 11 10 10 10 10 10 10 9 9 9 8 8 7 7 7 7 6 6 7 7 7 7 7 7 7 8 8 8 9 9 10 10 11 11 11 12 12 13 13 14 13 13 14 15 15 14 13 14 14 15 15 14 13 13 13 14 14
19 18 17 17 16 16 16 16 15 15 15 16 16 15 16 15 15 14 14 15 14 13 12 13 13 12 12 12 12 12 11 12 12 12 11 11 10 10 10 9 9 8 7 7 7 7 8 8 8 7 7 7 7 7 8 8 8 10 11 12 12 12 12 12 13 14 14 15 15 15 16 17 16 16 15 15 15 15 16 15 14 14 14 15 15
20 19 18 18 17 17 17 17 17 17 16 16 16 16 16 16 17 17 16 15 15 14 13 14 14 13 12 13 13 12 12 13 13 13 13 13 11 10 11 11 10 10 9 8 8 8 9 10 8 7 7 7 7 7 9 10 10 11 13 14 14 14 13 13 14 15 16 17 17 17 17 17 16 16 16 16 16 17 18 18 16 16 16 16 16
22 21 20 19 19 18 17 18 18 18 18 17 16 17 17 16 16 17 16 16 16 15 15 16 15 13 13 13 13 13 13 13 13 13 13 13 13 12 12 12 12 11 10 9 10 10 10 10 10 9 8 7 6 7 10 13 13 13 13 13 14 14 15 15 15 16 17 18 18 18 18 17 17 17 17 17 17 18 17 17 17 18 18 18 17
23 22 21 21 20 19 18 18 19 19 19 18 17 17 17 17 15 16 16 17 17 18 18 18 17 16 15 15 14 14 14 14 14 14 14 14 14 13 13 13 13 13 12 12 11 11 11 11 11 11 10 10 11 12 12 13 13 13 13 13 14 15 16 17 17 17 18 18 18 19 18 17 16 16 17 16 16 17 17 18 19 19 20 20 18
23 23 22 22 22 20 19 19 18 19 19 19 18 18 18 18 17 17 16 16 17 18 19 18 17 17 17 17 16 16 16 17 16 16 15 14 14 14 14 14 15 15 14 14 13 13 13 13 13 13 12 13 15 16 14 13 12 13 14 15 16 16 17 18 17 17 18 18 18 17 18 17 17 16 16 16 16 17 18 19 20 21 21 21 20
26 26 25 25 24 22 21 20 19 19 20 20 20 20 20 20 20 20 19 18 17 18 18 18 17 17 17 17 18 19 20 19 19 18 16 15 15 15 16 16 16 16 15 15 15 14 15 15 14 15 15 15 16 16 14 13 13 15 16 17 17 16 17 17 17 17 17 18 18 17 16 17 16 17 17 18 18 19 19 20 22 22 22 22 21
28 29 28 26 24 23 23 23 21 20 21 22 21 21 22 22 23 23 23 22 20 19 19 19 19 19 18 18 20 22 22 20 20 19 18 17 16 17 17 18 18 18 17 17 17 17 17 17 16 17 17 17 17 17 16 16 16 15 16 17 17 17 18 19 19 19 18 18 18 17 16 16 17 18 19 20 20 21 20 21 22 23 23 23 22
31 31 29 27 25 26 27 26 25 24 24 24 23 23 23 24 25 26 26 26 25 24 22 21 21 20 20 21 22 22 21 19 19 19 18 17 17 17 18 19 18 19 19 19 19 20 21 20 19 19 19 18 18 19 19 20 20 18 18 18 18 18 19 20 21 21 20 19 19 18 18 20 21 22 22 22 23 24 24 23 23 24 24 24 24
37 34 32 30 29 29 30 30 28 27 28 27 26 26 26 27 28 30 30 29 28 27 25 25 24 23 22 23 23 22 21 20 20 20 18 17 17 18 19 19 19 18 19 20 22 24 24 22 21 20 20 20 19 20 20 20 22 22 21 20 19 18 20 22 22 21 21 20 20 20 21 22 23 23 23 24 25 27 28 28 27 27 27 27 26
35 32 31 34 35 33 34 33 32 32 33 31 29 30 30 31 32 33 31 29 29 29 27 27 26 25 25 25 25 24 23 23 22 23 22 21 19 20 21 21 20 20 20 21 23 24 23 22 22 22 21 21 21 21 21 21 22 22 22 22 21 20 21 23 23 23 23 23 23 23 23 23 24 24 25 26 27 29 30 30 29 29 29 28 27
32 28 28 31 33 35 36 36 37 37 35 33 32 33 34 35 35 34 32 31 32 32 29 27 28 28 28 28 27 26 26 26 25 26 26 25 24 24 24 24 24 24 24 24 24 23 22 22 23 23 23 23 23 23 23 23 23 23 24 24 23 23 24 24 24 24 25 25 25 25 26 26 26 26 27 28 29 30 30 30 29 29 29 28 26
31 29 29 29 31 34 37 38 38 37 35 34 35 36 38 38 37 35 34 32 33 33 30 29 30 29 30 30 28 28 28 28 28 27 28 28 28 28 28 27 27 27 27 27 26 25 24 24 25 25 24 24 25 25 25 25 25 25 25 25 25 26 27 26 24 24 24 24 25 26 28 28 29 28 28 27 28 29 29 29 29 28 27 26 25
28 30 34 34 34 36 38 39 38 35 33 35 36 37 38 38 36 35 33 30 28 29 28 28 27 27 29 30 28 27 27 28 28 28 28 28 29 28 28 28 28 27 28 28 28 27 27 27 27 27 26 25 25 25 26 26 27 27 27 27 26 27 27 27 25 25 24 23 24 26 28 29 29 29 28 27 26 27 27 26 26 25 25 24 24
27 31 36 36 33 33 35 36 36 36 35 35 34 35 36 34 33 32 28 24 23 24 24 23 22 22 24 24 23 23 24 25 25 25 25 27 28 28 27 27 26 26 26 27 26 26 27 27 26 26 26 25 25 25 26 26 28 28 28 27 26 27 28 28 28 27 26 25 26 27 28 29 28 27 27 26 26 25 24 24 24 24 24 23 23
26 30 33 32 29 28 29 29 31 34 35 34 32 31 29 27 26 23 18 17 18 19 17 17 17 17 18 18 18 18 19 21 21 22 22 23 24 24 24 23 24 24 24 24 24 24 25 25 23 22 23 23 24 25 26 26 26 26 26 26 26 27 27 28 28 28 28 27 28 28 28 28 27 26 25 26 25 24 24 24 24 24 24 24 24
28 30 31 29 26 25 26 29 32 33 31 29 28 26 24 24 22 17 13 13 14 13 12 13 13 14 15 14 15 16 17 17 18 19 20 20 20 21 20 21 22 22 21 21 22 22 22 21 19 18 19 20 21 22 22 21 21 22 22 23 23 23 24 24 24 25 26 26 27 26 26 25 25 24 23 23 23 23 23 23 24 23 24 24 24
27 27 26 25 25 24 26 30 32 28 23 21 22 21 20 20 17 12 11 13 12 10 11 12 12 13 12 12 12 14 15 16 16 15 16 17 18 19 19 20 20 19 19 19 18 17 16 14 13 14 15 15 16 17 17 18 18 19 20 21 22 22 22 22 21 21 22 22 22 22 22 22 22 21 20 20 20 21 21 21 21 22 22 22 22
24 22 19 19 21 24 26 27 24 21 20 22 23 21 19 17 15 13 12 12 11 10 10 11 11 11 10 9 9 10 11 13 14 14 15 15 16 17 17 17 17 16 15 13 12 12 12 11 13 14 15 16 17 18 19 20 21 21 22 23 24 24 24 24 23 22 22 22 22 21 21 21 21 21 20 20 20 20 20 20 20 21 22 22 22
20 19 18 18 19 21 22 23 21 20 22 24 24 25 25 21 16 14 12 10 9 9 9 9 9 9 8 8 8 8 8 10 11 11 11 11 11 12 12 12 13 12 12 11 12 13 15 15 17 18 19 21 22 22 23 24 24 25 25 26 26 27 27 27 25 25 26 25 25 24 24 24 24 23 23 22 23 23 23 23 22 23 24 24 24
18 19 19 21 22 21 20 22 22 23 26 26 25 26 26 20 15 14 13 11 10 10 10 10 10 10 9 9 9 9 10 10 9 8 8 9 10 10 11 12 13 14 14 15 16 18 19 20 21 22 23 24 25 26 27 27 27 27 28 28 28 28 29 29 28 28 28 26 26 27 27 26 25 25 25 25 25 26 26 25 25 24 25 25 25
12 14 16 19 22 22 21 21 21 22 24 24 23 23 21 17 16 15 12 10 10 11 11 11 11 11 11 12 12 12 12 11 10 9 10 11 13 14 14 16 17 18 18 20 21 22 23 24 25 26 27 27 28 29 29 30 30 29 29 29 28 28 29 30 28 28 27 26 26 27 27 26 26 25 25 25 25 25 25 25 24 24 23 23 23
9 10 12 13 16 18 19 18 18 18 18 16 15 14 13 12 11 10 9 9 10 11 12 12 13 13 13 13 14 13 12 12 13 13 14 16 17 18 19 19 21 22 23 23 24 25 26 27 28 28 28 29 29 30 30 31 32 32 30 29 27 27 29 29 28 26 25 25 26 26 26 25 25 24 24 23 23 23 22 22 22 22 21 21 21
10 10 10 10 11 13 15 16 17 17 15 13 12 12 12 11 10 10 11 12 12 13 14 15 15 16 16 16 16 15 15 16 17 18 19 20 21 21 22 23 24 25 26 26 27 28 28 29 30 30 30 30 29 29 30 31 32 32 30 28 26 27 29 29 27 25 24 25 25 25 24 24 23 23 22 21 21 20 20 20 20 20 21 21 22
9 9 9 9 10 11 12 14 15 15 14 14 14 14 14 13 13 14 15 15 16 17 17 17 18 18 18 19 19 19 19 20 21 21 22 23 24 25 26 27 27 28 28 29 29 30 30 31 31 31 31 30 29 29 30 31 30 30 29 28 27 28 28 27 25 24 24 25 24 23 22 22 21 21 20 20 20 20 20 20 21 21 22 23 23
9 9 9 9 10 12 12 12 13 15 15 15 15 15 15 15 15 17 18 18 19 20 20 21 21 21 21 22 23 23 23 23 24 25 25 26 26 27 28 28 29 29 29 30 30 30 30 30 30 31 31 30 29 30 30 29 29 29 28 28 28 28 28 27 25 24 24 24 22 21 21 21 20 20 20 21 21 21 22 22 23 23 24 24 25
9 9 9 10 11 12 12 12 13 15 16 15 15 15 16 16 17 19 20 20 20 21 22 23 23 23 23 23 24 25 25 25 26 26 27 27 27 27 28 28 29 29 29 29 29 29 29 29 29 30 30 30 30 30 29 28 28 28 28 28 28 28 28 26 24 24 24 23 22 22 22 22 22 22 22 23 23 23 24 24 25 25 26 26 27
11 11 11 12 13 14 13 13 15 16 17 17 17 17 18 19 20 20 21 21 21 22 22 23 24 25 25 25 25 25 25 25 26 26 26 26 26 26 26 26 27 27 27 27 27 27 28 29 29 29 29 29 29 29 28 28 28 28 27 28 28 27 27 26 24 24 24 23 24 24 24 24 24 24 25 25 25 25 26 27 27 28 28 29 29
14 14 14 14 15 15 15 15 16 17 18 18 19 19 20 21 22 22 22 22 22 22 22 23 25 25 25 25 25 25 25 24 24 25 25 25 25 25 25 25 25 26 26 26 26 26 27 28 28 28 28 28 28 28 28 27 27 27 27 26 26 26 26 26 25 25 25 25 26 26 26 27 27 27 27 27 27 28 29 29 30 31 32 32 32
19 19 18 18 18 17 17 17 18 18 19 19 20 21 22 23 23 23 24 24 24 23 22 23 24 24 24 24 25 25 25 24 24 24 25 25 25 24 24 24 24 25 25 25 25 25 26 27 27 27 27 27 28 28 27 27 27 27 26 26 26 26 26 26 27 26 26 26 27 28 28 29 29 29 29 29 30 31 32 32 33 34 34 35 35
24 24 23 22 21 20 19 19 19 20 20 20 21 22 23 23 23 23 24 24 25 25 25 24 23 23 23 23 24 25 25 24 24 24 25 25 25 25 24 24 24 25 25 26 26 26 26 26 26 26 26 26 27 27 27 27 27 26 26 27 27 26 26 27 28 28 29 29 29 30 31 31 31 31 31 32 32 33 34 35 35 36 36 36 37
28 27 25 24 22 21 20 20 20 21 21 22 22 22 23 23 22 22 23 23 24 25 26 26 25 25 24 24 25 25 24 24 24 25 26 26 26 26 26 25 25 26 27 28 28 28 28 27 27 26 26 27 27 27 27 27 27 27 27 28 28 28 29 29 30 31 31 32 32 33 33 33 33 33 34 34 34 35 36 36 36 36 37 38 38
31 30 29 27 25 24 22 21 21 21 21 22 22 23 23 23 23 23 23 23 24 25 25 26 26 27 27 27 27 25 23 24 25 27 27 28 28 28 28 27 27 28 29 30 30 30 30 29 28 28 29 29 29 29 29 29 29 29 30 30 31 31 32 32 33 33 34 35 35 35 35 35 35 36 36 36 37 37 37 37 38 38 39 39 40
32 31 31 30 29 27 25 23 22 21 21 22 22 22 23 23 24 24 24 24 25 26 26 27 27 28 28 29 28 26 24 25 26 28 28 29 30 31 30 30 30 31 32 33 33 33 32 31 31 31 32 32 32 32 32 32 32 32 33 33 34 34 35 35 35 36 37 37 38 38 38 38 38 38 38 39 39 39 39 40 40 41 41 41 41
31 30 30 30 29 27 26 25 24 23 23 23 22 22 23 23 23 24 25 25 26 27 28 29 29 29 29 29 28 28 27 27 27 28 29 29 30 31 31 31 32 33 33 33 34 33 33 32 32 33 33 33 34 34 34 34 34 35 35 36 36 36 37 37 38 38 39 39 40 40 40 40 40 40 40 40 40 40 41 41 42 42 42 42 42
32 31 31 30 29 28 27 26 26 25 25 25 25 24 24 24 24 24 25 25 26 28 29 30 30 30 29 29 29 29 29 28 28 29 29 29 28 30 31 32 32 32 32 33 33 32 32 32 32 33 33 34 34 35 35 35 35 35 36 37 37 38 38 39 39 40 40 40 40 40 40 40 40 40 40 40 40 40 41 42 42 42 42 42 43
34 35 34 33 31 30 29 28 28 28 28 27 27 27 26 26 26 26 26 27 27 28 29 31 31 31 30 30 30 29 29 29 29 29 30 29 29 30 31 32 32 32 32 33 32 31 31 31 32 32 33 33 34 34 35 35 35 35 36 36 37 37 38 38 39 39 39 39 38 39 39 40 40 40 40 39 40 40 41 42 42 42 42 42 42
35 37 38 37 35 34 33 31 31 30 29 28 29 29 29 29 29 29 29 29 29 29 30 31 32 32 32 32 31 30 29 29 29 29 30 30 30 31 32 32 32 32 33 33 32 31 31 31 32 33 33 33 34 34 35 35 35 35 35 35 36 37 38 38 38 38 37 37 38 38 39 40 40 40 40 39 40 40 41 41 41 41 41 41 41
37 37 38 39 40 39 38 37 35 33 31 30 30 30 30 31 31 31 32 32 31 31 31 31 33 34 34 34 33 32 31 30 30 30 30 30 31 31 32 32 33 33 33 33 33 32 32 32 33 33 34 34 34 35 35 36 36 36 36 36 37 38 38 38 38 37 37 38 38 39 39 40 40 40 40 39 39 40 40 40 40 40 41 41 42
36 38 39 40 41 41 41 40 39 37 35 33 32 32 32 33 34 34 33 33 32 32 32 32 33 34 35 36 36 35 33 32 31 31 31 31 31 32 33 33 34 34 34 33 34 33 33 33 33 34 34 35 35 36 36 37 36 36 37 37 38 39 39 38 38 38 38 39 39 40 40 40 40 40 39 39 39 39 39 39 40 40 41 42 43
38 42 42 42 43 45 45 42 40 38 37 34 33 34 36 36 37 37 36 34 33 32 33 33 34 34 35 36 37 36 35 34 32 32 32 32 33 33 34 35 35 35 35 35 35 35 35 35 35 35 35 36 36 36 37 37 37 38 38 38 38 39 38 38 38 38 38 39 40 40 40 40 40 39 38 38 38 39 39 40 40 41 42 43 44
37 38 37 38 41 43 42 40 38 38 37 35 35 36 38 38 39 39 38 36 34 33 33 33 33 34 34 35 36 36 36 35 34 33 33 33 34 35 35 36 36 36 36 36 36 36 37 37 37 37 37 37 37 37 37 37 38 38 39 39 39 38 38 37 38 38 39 39 39 39 39 39 38 38 38 38 38 39 40 41 42 42 44 45 46
36 34 34 34 34 34 35 35 35 36 36 36 37 37 37 38 39 39 39 37 35 34 34 33 33 34 34 35 35 36 36 36 35 35 34 34 35 36 36 36 37 37 36 36 37 37 38 38 38 38 38 38 38 38 38 38 39 39 39 39 39 38 37 37 38 38 39 39 38 38 38 37 37 37 38 39 40 40 41 42 43 44 45 47 48
35 34 34 33 32 32 34 35 33 32 33 35 35 35 35 35 35 35 36 36 36 35 35 34 34 34 35 35 35 35 36 36 36 36 36 36 36 36 36 37 37 37 36 36 36 36 37 37 38 38 38 38 38 39 39 39 39 39 40 39 38 37 37 37 37 37 37 37 37 36 36 36 37 38 39 40 41 42 43 44 45 46 48 49 50
33 33 33 32 31 32 33 33 32 31 31 32 33 33 34 33 32 32 32 34 35 36 35 35 35 35 35 35 35 36 36 37 37 37 37 37 36 36 36 36 37 36 36 35 36 36 36 36 37 37 37 37 38 38 38 38 39 39 39 38 37 37 36 36 35 35 35 35 35 36 36 37 38 39 41 42 43 44 45 47 48 49 50 52 53
32 33 33 33 33 34 33 33 32 31 32 32 32 32 32 31 31 31 31 33 33 34 34 35 35 36 36 36 36 37 37 38 38 37 36 36 35 35 35 36 36 36 35 36 36 36 36 36 37 37 37 37 37 37 37 38 38 37 37 36 35 35 35 34 34 34 34 35 35 36 38 39 40 41 42 44 45 46 48 49 50 52 53 54 55
Wind_Direction
207 209 208 207 208 209 211 212 213 210 206 205 206 206 203 199 202 206 206 208 211 209 206 209 212 212 216 221 220 219 219 220 226 231 234 238 245 255 259 264 274 276 279 283 280 275 270 268 267 266 266 264 267 273 275 278 282 285 289 296 301 302 304 307 309 312 312 313 315 313 311 314 316 317 319 322 323 323 324 325 325 327 331 335 338
208 210 210 208 209 211 212 214 216 215 212 212 211 210 210 210 211 214 214 216 219 217 210 211 215 215 219 224 223 222 225 227 231 237 242 246 250 256 259 262 266 272 283 289 284 283 281 279 278 275 272 267 264 264 266 270 274 281 292 300 306 308 310 313 314 316 318 318 317 315 314 316 317 318 320 322 322 322 322 324 327 331 335 337 338
211 211 212 209 211 213 215 215 216 216 217 217 214 212 215 217 217 216 217 221 224 221 218 218 221 223 227 230 229 226 230 232 235 241 246 250 255 261 263 264 266 272 282 283 277 277 278 279 281 278 278 278 272 268 268 271 276 286 297 305 311 315 314 314 316 317 320 320 319 317 316 317 318 318 320 321 321 321 320 323 328 333 335 337 337
215 214 212 211 213 215 217 218 218 218 220 221 219 218 220 220 220 218 219 225 230 229 227 225 228 233 236 240 240 238 240 242 243 247 250 251 254 259 261 264 272 280 283 282 278 278 278 281 284 282 285 287 285 285 285 287 289 291 296 304 312 315 313 313 317 319 321 322 321 318 316 316 314 313 314 315 315 316 318 324 330 332 331 333 337
220 217 215 215 215 216 218 219 220 220 221 223 222 223 225 223 222 222 222 226 230 232 234 234 233 236 240 247 250 248 250 252 252 253 255 256 257 259 263 267 273 276 279 283 282 280 283 288 289 287 288 289 288 290 291 292 293 294 298 304 307 309 311 313 315 315 316 315 313 312 311 311 310 313 318 320 319 318 320 324 328 329 329 331 336
224 222 220 221 220 220 221 222 223 223 223 225 224 225 229 228 226 226 226 229 229 229 236 239 238 238 242 247 250 250 250 253 255 254 256 260 262 262 263 266 269 271 274 277 276 276 279 280 282 283 285 285 285 287 290 294 298 300 301 301 301 302 304 306 307 307 308 310 312 315 317 318 320 324 326 323 319 317 319 325 332 332 331 330 333
226 227 226 227 226 226 227 227 228 227 227 229 228 227 230 232 232 231 230 233 233 231 235 238 237 240 245 247 248 249 249 251 254 255 256 258 259 262 265 265 266 271 275 276 274 276 278 277 277 279 281 282 283 284 286 291 296 299 300 301 301 299 299 303 306 308 310 312 316 319 320 321 323 323 321 318 317 321 326 332 334 331 329 328 331
227 229 229 231 231 230 230 232 233 232 231 233 234 234 234 234 235 233 230 234 237 236 237 239 238 240 244 246 248 249 249 250 253 256 257 256 255 258 263 266 268 269 272 274 276 279 280 280 279 275 271 271 273 279 287 292 294 293 295 297 298 297 299 302 304 306 308 310 313 316 317 319 321 320 321 325 328 328 329 331 330 327 326 327 333
226 229 230 233 233 231 231 233 235 236 234 233 236 238 238 237 238 239 235 234 237 238 240 243 244 245 244 246 250 253 253 252 252 254 255 255 254 255 259 264 268 269 268 269 272 276 279 283 286 287 286 282 271 270 284 294 298 297 294 293 295 298 300 301 302 304 306 308 312 314 315 319 322 324 328 333 332 329 329 329 327 326 324 325 334
228 229 230 234 236 234 233 233 235 238 238 236 234 237 240 240 240 243 240 235 236 238 240 243 247 251 250 247 248 253 256 255 252 251 251 253 254 255 257 263 266 268 268 265 266 270 275 282 287 288 291 290 282 279 283 290 295 297 296 295 299 302 304 304 305 305 306 307 309 312 315 321 325 327 332 333 330 329 331 331 329 328 325 324 329
233 232 230 232 233 232 233 235 235 237 239 239 236 237 242 243 242 244 243 239 239 240 242 243 246 250 252 252 252 252 252 253 253 253 252 253 257 259 261 264 266 267 269 268 269 271 274 276 278 279 279 276 276 279 282 283 288 294 299 300 302 305 306 307 307 306 305 305 306 310 316 321 324 326 328 329 328 328 329 330 329 328 326 323 325
238 237 233 232 232 233 235 236 236 237 237 238 238 238 241 243 245 246 246 244 243 242 244 245 246 249 252 253 252 248 245 247 251 254 253 252 255 258 260 262 263 265 268 270 272 274 273 272 272 273 272 269 269 272 274 277 283 291 298 301 303 305 306 306 304 301 300 301 304 311 317 319 321 322 322 322 322 323 323 325 326 324 323 323 325
244 245 241 237 235 238 239 236 235 239 239 239 241 241 242 243 245 246 247 246 244 242 242 243 243 243 244 246 248 248 248 248 250 253 256 254 253 254 257 260 262 264 265 267 270 272 272 271 269 267 267 270 274 278 279 279 282 287 293 296 300 303 304 302 299 297 298 302 307 315 320 318 317 318 318 318 318 318 319 321 321 319 319 320 321
249 252 251 247 242 242 243 239 236 240 244 245 246 246 246 247 246 245 245 243 241 239 240 242 243 243 243 245 248 253 256 257 256 257 258 256 256 256 259 261 261 262 264 266 267 267 266 266 267 268 268 271 275 279 282 283 284 286 288 289 292 296 295 294 294 296 300 305 310 315 315 313 312 313 313 313 314 315 316 316 316 315 314 314 317
246 249 251 252 250 249 250 249 247 246 246 248 250 251 251 252 251 247 244 243 243 241 241 242 243 243 244 247 250 254 258 260 262 264 261 258 258 259 261 262 263 263 263 263 263 263 264 266 268 270 270 272 274 275 277 280 284 286 286 285 287 289 289 290 293 295 297 299 304 306 306 306 306 306 305 306 308 310 311 311 312 313 312 312 316
249 251 250 249 251 252 253 255 256 253 248 247 251 254 254 256 256 253 250 250 251 248 245 245 246 246 247 248 250 253 256 258 261 264 264 262 260 260 262 263 264 263 261 260 261 263 267 269 269 270 270 272 275 277 276 276 278 280 281 281 283 284 285 288 292 294 296 297 298 300 300 300 300 300 301 304 306 308 307 308 310 311 310 311 316
252 257 255 251 253 255 254 255 256 256 254 252 254 256 255 257 259 259 257 256 255 254 253 251 251 252 252 252 252 254 257 260 261 261 262 262 259 259 259 260 262 263 262 262 264 266 268 269 269 270 270 271 275 278 279 277 276 276 276 279 281 282 283 287 291 293 295 295 295 296 297 298 299 300 302 304 305 306 307 309 310 310 309 310 313
251 253 256 258 261 261 259 258 258 259 259 256 254 254 255 256 258 259 258 256 255 256 256 253 253 255 256 257 257 258 261 264 264 263 261 260 258 256 256 257 260 262 263 265 266 267 268 269 270 271 271 272 275 277 278 276 276 276 277 278 280 280 282 287 289 289 289 290 291 294 296 298 300 301 302 302 302 304 307 310 310 310 310 311 312
253 254 257 260 261 259 257 258 259 260 260 256 253 255 258 259 258 258 259 258 254 254 254 253 254 255 255 257 257 259 262 265 266 265 261 257 255 254 254 256 259 261 263 264 265 266 268 270 272 272 271 271 274 276 277 276 276 276 276 277 279 280 282 284 286 286 286 286 289 292 294 296 298 299 300 300 300 302 305 308 308 309 312 313 313
251 253 256 257 255 253 252 251 251 254 255 254 253 254 256 258 257 257 259 261 258 254 249 247 248 250 252 253 252 253 257 259 259 259 258 255 254 252 252 254 259 261 262 262 263 265 267 269 271 271 270 271 274 275 276 276 275 275 275 278 281 282 283 284 285 285 286 286 287 289 291 293 296 298 299 299 299 301 304 305 305 308 310 311 310
242 245 248 249 249 249 251 251 252 254 253 250 249 249 250 254 255 253 255 258 252 244 240 240 242 245 246 245 242 244 249 253 252 250 252 254 252 249 249 252 257 260 260 261 263 264 266 270 271 270 270 272 273 273 273 275 276 278 280 282 284 285 285 285 285 284 284 285 286 287 290 292 294 295 296 296 297 299 300 300 301 303 304 305 305
236 238 237 238 241 243 245 248 252 253 248 242 239 239 242 247 249 247 250 254 243 230 232 242 245 244 243 240 241 245 250 253 251 246 247 249 247 244 246 251 255 256 258 260 264 266 270 274 274 272 270 271 272 272 274 277 280 282 283 285 286 287 288 288 287 286 284 284 285 286 288 290 291 293 294 295 296 297 297 297 298 300 301 302 303
237 237 233 231 233 237 240 242 243 242 239 237 237 235 233 236 241 241 245 253 254 246 247 252 251 249 250 248 247 246 244 244 244 241 241 242 241 241 245 249 253 256 259 263 267 270 272 273 272 271 272 273 275 277 279 280 280 282 283 285 286 288 289 290 291 291 289 287 287 288 290 292 293 295 297 297 296 296 295 296 297 298 299 300 302
231 234 232 228 231 237 239 236 234 233 236 244 248 248 246 243 243 242 239 244 251 254 253 255 253 249 247 244 239 233 229 230 234 236 237 238 239 241 245 249 252 256 260 263 266 269 271 272 273 277 279 281 281 282 282 282 282 282 283 283 284 285 286 287 289 289 288 288 289 289 290 291 293 294 295 296 295 294 293 293 293 293 294 296 298
220 224 228 229 234 240 236 229 230 236 240 242 241 243 247 246 238 233 232 230 233 239 241 243 241 236 230 225 220 214 211 213 218 224 228 229 232 237 241 245 249 254 260 264 265 268 272 275 277 280 282 283 284 283 283 283 283 283 283 282 283 284 284 285 285 285 285 286 286 286 286 286 287 288 289 289 289 288 287 287 288 288 289 291 293
223 226 231 233 236 238 230 222 225 231 234 236 236 236 240 239 229 224 224 217 216 225 228 227 225 223 220 217 211 208 210 211 210 217 225 229 232 238 243 248 253 258 262 266 267 269 272 275 277 278 279 280 280 281 281 280 280 280 280 280 280 281 283 284 284 283 283 285 285 284 284 284 284 285 285 285 284 284 285 286 286 287 288 289 291
230 231 236 236 233 231 225 220 222 225 227 231 233 233 235 234 231 231 230 219 218 227 230 229 228 227 225 224 223 222 224 228 231 237 244 248 250 253 254 256 260 264 266 267 269 271 273 274 275 276 277 278 279 279 280 280 279 278 278 278 280 280 280 281 281 281 283 284 283 282 283 284 284 284 284 284 284 284 286 287 287 288 289 290 292
221 223 229 231 228 228 225 220 220 223 225 228 230 234 239 240 237 238 238 232 230 232 233 236 239 240 240 241 241 241 244 249 252 252 252 254 257 260 262 264 266 269 270 271 272 273 274 275 276 276 277 277 278 279 280 280 279 279 279 279 280 279 278 279 280 281 283 283 281 281 282 283 283 283 282 283 283 284 285 286 287 289 291 292 294
218 219 222 224 228 233 232 227 224 224 226 226 227 230 234 234 232 234 237 237 236 237 238 241 243 245 248 250 251 252 253 254 256 257 257 259 262 264 266 267 268 269 270 272 273 274 275 275 276 277 277 277 277 276 276 277 278 279 280 280 278 276 276 278 281 283 283 281 279 280 281 281 281 282 282 282 283 283 284 286 288 290 292 293 295
221 222 221 222 228 236 238 236 236 237 235 235 238 240 241 240 239 241 243 245 245 246 247 249 250 252 255 257 258 258 258 258 260 261 263 265 267 268 269 270 270 270 271 272 272 273 275 275 276 276 277 278 277 276 276 277 279 280 281 281 279 278 278 279 282 284 282 280 280 281 281 280 280 281 282 283 284 285 287 288 289 291 291 293 293
235 235 234 232 233 237 240 241 243 246 245 243 245 251 254 254 252 251 252 252 252 253 254 255 256 257 258 260 262 262 262 262 263 264 265 266 267 269 270 271 272 272 273 273 273 274 274 275 276 276 277 277 277 277 278 279 280 280 281 281 281 281 281 283 285 284 281 281 282 282 281 281 283 283 284 285 286 287 288 289 290 291 291 292 293
250 250 251 251 249 248 249 250 251 255 256 255 254 254 256 257 256 256 256 257 257 258 259 260 261 261 260 261 263 265 266 266 267 268 269 269 269 270 271 271 272 272 272 273 274 275 276 276 276 276 276 276 277 278 279 280 280 280 281 281 281 282 283 284 285 283 282 282 282 281 281 283 284 285 286 287 288 288 289 289 290 291 291 292 293
256 255 254 256 258 258 257 255 256 259 262 264 263 262 261 260 258 258 259 261 262 262 262 263 264 264 264 265 266 267 269 270 271 271 272 272 272 272 272 272 273 273 273 273 273 274 275 275 275 276 276 277 277 278 278 278 279 279 279 280 281 282 283 283 282 280 281 282 281 281 282 283 284 285 286 287 288 288 288 289 290 291 291 292 293
260 262 262 262 263 264 262 261 261 262 264 266 267 267 266 265 264 263 262 262 263 265 266 266 266 266 268 269 269 270 271 273 274 275 276 276 276 276 276 277 276 276 276 275 274 273 273 273 274 275 276 277 277 277 278 278 278 278 278 279 279 279 280 279 278 278 278 279 279 280 281 282 282 284 285 286 287 288 288 289 290 291 292 293 294
265 266 266 266 267 268 268 267 267 266 265 265 265 265 265 266 267 268 267 266 265 264 265 266 268 271 273 273 273 273 275 276 277 277 277 277 278 279 279 279 278 278 277 277 276 275 274 274 274 275 275 276 277 278 279 279 279 279 279 278 277 276 276 276 276 275 275 276 277 278 279 280 281 283 285 286 287 287 288 289 290 290 291 292 293
263 264 265 265 266 267 269 269 269 269 268 266 266 266 267 267 268 269 270 270 270 269 268 267 268 270 272 273 274 273 274 276 278 278 277 277 278 278 278 279 279 279 278 277 276 275 275 275 276 276 276 277 277 278 278 279 280 280 279 278 276 275 274 274 274 274 275 275 276 276 277 278 280 281 282 283 284 285 286 286 287 288 289 290 290
257 259 261 264 266 267 268 268 268 269 269 268 267 268 269 269 269 269 269 269 271 272 272 271 270 269 269 268 269 272 275 278 279 279 278 278 278 277 277 277 277 277 277 276 276 276 276 277 278 278 279 279 278 279 279 279 279 279 278 277 276 276 274 274 274 274 275 275 275 275 276 277 278 279 280 281 282 284 285 286 286 287 287 288 289
253 255 258 263 266 267 267 267 267 268 268 268 268 268 269 270 270 270 271 271 272 272 273 273 272 271 269 268 268 270 273 274 274 274 274 275 275 275 274 274 274 274 275 275 276 276 277 278 279 280 280 280 280 280 280 279 278 278 277 276 275 274 274 274 275 275 275 275 275 276 278 279 279 280 282 284 285 285 285 286 286 286 286 287 288
253 255 258 260 263 265 267 268 269 269 268 269 270 270 271 272 273 274 275 275 275 275 274 274 273 273 272 272 271 271 270 268 268 268 269 270 271 271 272 272 272 272 272 273 274 275 277 279 279 280 280 279 279 279 278 278 277 277 277 276 276 276 276 277 277 277 277 277 278 279 280 281 282 284 285 285 285 285 285 285 285 286 286 286 287
254 256 258 259 260 263 266 269 271 272 272 273 274 274 275 275 276 277 278 278 278 277 277 276 275 274 275 277 277 275 273 271 269 268 268 268 270 271 272 271 271 271 272 273 274 276 277 278 278 278 278 278 278 278 277 277 277 277 277 278 278 278 278 278 278 278 279 280 281 281 282 283 284 284 284 284 284 284 285 284 285 285 285 285 285
257 258 258 259 262 264 266 268 270 272 273 274 276 277 278 279 279 280 280 281 281 280 279 278 277 276 277 277 278 278 277 276 274 273 272 272 272 273 273 272 272 273 273 274 274 276 277 278 278 278 278 278 278 278 278 278 278 278 278 278 278 278 278 278 278 279 280 280 281 282 283 283 283 282 282 283 283 284 283 283 283 284 284 284 284
260 261 262 263 264 264 264 265 268 270 272 274 276 278 280 282 282 282 281 281 280 281 281 281 281 280 279 277 276 277 277 276 276 275 275 274 274 274 273 274 275 275 274 275 276 277 278 278 277 277 277 277 278 278 279 279 278 278 278 278 278 279 278 278 278 279 280 281 282 282 282 281 281 281 282 282 283 283 283 283 283 283 283 283 283
260 262 264 267 268 267 268 269 269 269 271 274 277 279 281 282 283 282 282 281 280 280 280 281 281 281 281 279 278 277 276 275 275 274 274 275 275 274 275 276 276 276 276 277 278 279 278 278 278 278 278 278 278 278 278 278 278 278 278 279 279 279 278 279 280 281 282 282 282 281 281 281 281 281 282 282 282 282 282 282 282 282 282 283 283
258 260 262 265 266 268 269 270 270 270 271 273 276 279 281 283 284 284 283 282 281 279 279 279 279 280 280 280 279 277 276 275 275 275 275 275 276 276 276 277 277 278 278 279 280 280 280 280 280 280 280 280 280 280 279 279 280 280 281 280 280 280 280 281 282 283 283 283 282 282 281 281 281 282 282 282 281 280 280 280 281 282 282 283 284
256 258 260 262 264 266 267 267 269 272 274 275 277 280 282 283 284 284 284 283 282 280 278 277 276 276 277 278 278 278 277 276 276 276 276 276 276 276 277 277 278 278 279 280 280 281 281 280 280 280 280 280 280 280 281 281 282 282 281 281 281 281 282 283 284 284 284 283 283 282 282 282 282 282 282 281 280 280 280 280 281 282 282 283 284
254 254 254 257 260 263 265 268 270 272 274 276 278 281 281 282 283 283 283 283 283 281 279 277 275 274 274 275 276 277 277 276 276 275 275 275 275 275 275 275 276 277 278 279 279 280 280 280 280 279 279 279 279 279 280 280 280 280 280 280 281 281 282 283 283 283 283 282 281 281 282 282 282 281 280 279 279 280 280 281 282 283 284 284 285
259 259 260 262 263 262 262 264 268 271 273 275 275 275 277 278 279 280 280 280 281 281 279 277 275 274 274 274 274 275 276 277 276 276 276 275 274 274 274 274 275 275 276 277 277 278 278 278 278 278 278 278 278 278 278 278 278 278 278 279 279 280 281 281 281 280 279 279 279 279 280 279 279 279 279 279 280 280 281 282 283 284 285 286 287
264 265 268 271 270 264 260 262 268 271 273 272 272 272 274 276 277 278 279 278 278 278 277 276 274 273 274 274 275 276 277 278 278 278 277 276 275 275 275 276 276 275 275 275 276 276 276 276 277 277 278 278 278 278 277 277 277 277 277 278 279 280 280 280 279 278 278 278 278 278 278 278 278 278 279 279 280 281 282 283 285 286 287 288 289
265 263 263 265 267 265 263 266 270 272 271 271 272 272 274 277 277 277 277 276 276 275 275 273 273 273 273 275 276 276 277 277 277 277 276 276 276 277 278 278 278 278 278 277 277 276 276 277 277 277 278 278 278 278 278 278 277 278 278 279 280 280 279 279 278 278 278 278 277 277 277 278 278 279 280 281 282 283 284 286 287 288 289 290 291
264 263 262 263 264 263 264 268 272 272 271 272 272 272 274 276 277 276 274 272 271 271 271 271 272 273 274 275 276 277 277 277 277 277 277 278 278 278 278 278 279 279 279 279 279 278 278 278 278 278 278 278 278 278 278 278 278 279 280 280 280 279 279 278 277 277 277 276 277 277 278 279 280 281 283 284 285 286 287 289 290 290 291 293 293
261 262 263 265 264 263 262 264 267 268 268 269 270 270 270 272 274 273 270 268 267 269 270 271 273 274 275 276 276 277 277 277 278 278 279 280 279 279 279 279 279 279 279 279 279 279 279 279 279 279 279 279 279 279 278 278 279 279 279 279 279 279 278 278 278 277 278 278 279 280 282 283 284 285 286 288 289 290 291 292 293 294 295 295 296
Height
3222 3223 3225 3226 3228 3229 3230 3231 3233 3234 3235 3236 3237 3238 3239 3240 3241 3242 3243 3244 3244 3245 3246 3247 3248 3249 3250 3250 3251 3252 3252 3253 3254 3255 3255 3256 3256 3257 3257 3257 3258 3258 3259 3259 3259 3259 3259 3260 3260 3260 3260 3261 3261 3261 3261 3261 3261 3261 3260 3261 3261 3260 3260 3259 3259 3259 3259 3258 3257 3257 3256 3255 3254 3253 3253 3252 3251 3250 3249 3248 3247 3246 3245 3244 3242
3221 3223 3224 3225 3227 3228 3229 3230 3232 3233 3235 3236 3237 3238 3238 3239 3241 3242 3243 3244 3244 3245 3246 3247 3248 3248 3249 3250 3251 3252 3252 3253 3253 3254 3255 3255 3256 3256 3257 3257 3257 3258 3258 3258 3259 3259 3259 3259 3260 3260 3260 3260 3260 3260 3260 3260 3260 3259 3259 3260 3259 3259 3258 3258 3258 3258 3257 3257 3256 3255 3255 3254 3253 3252 3251 3251 3250 3249 3247 3246 3245 3244 3243 3242 3241
3220 3222 3223 3225 3226 3227 3229 3230 3231 3232 3234 3235 3236 3237 3238 3239 3240 3241 3242 3243 3244 3245 3246 3246 3247 3248 3249 3250 3250 3251 3252 3252 3253 3254 3255 3255 3255 3256 3256 3257 3257 3257 3257 3257 3257 3258 3258 3258 3259 3259 3259 3259 3259 3259 3259 3259 3259 3258 3258 3258 3258 3258 3257 3257 3256 3256 3256 3255 3255 3254 3253 3252 3251 3251 3250 3249 3248 3247 3246 3245 3244 3243 3242 3241 3240
3219 3221 3222 3224 3225 3227 3228 3229 3231 3232 3233 3234 3235 3236 3237 3238 3239 3240 3241 3242 3243 3244 3245 3245 3246 3247 3248 3249 3250 3250 3251 3252 3252 3253 3254 3254 3255 3255 3256 3256 3256 3256 3257 3257 3257 3257 3257 3257 3257 3257 3258 3258 3258 3258 3258 3258 3258 3258 3257 3257 3257 3257 3256 3256 3255 3255 3254 3254 3253 3252 3252 3251 3250 3249 3248 3248 3247 3246 3244 3244 3243 3242 3241 3240 3239
3218 3219 3221 3222 3224 3226 3227 3228 3230 3231 3232 3233 3234 3236 3237 3237 3239 3240 3240 3241 3242 3243 3244 3244 3245 3247 3247 3248 3249 3249 3250 3251 3251 3252 3253 3253 3254 3254 3255 3255 3255 3255 3256 3256 3256 3256 3256 3256 3256 3256 3256 3257 3257 3257 3257 3257 3257 3257 3256 3256 3256 3255 3255 3255 3254 3254 3253 3252 3252 3251 3250 3249 3249 3248 3247 3246 3245 3244 3243 3243 3242 3241 3240 3239 3238
3216 3218 3220 3221 3223 3224 3226 3227 3229 3230 3231 3232 3233 3235 3236 3236 3238 3239 3239 3240 3241 3241 3242 3243 3244 3245 3246 3247 3248 3248 3249 3250 3250 3251 3252 3252 3253 3253 3254 3254 3254 3255 3255 3255 3255 3255 3255 3255 3255 3255 3255 3255 3256 3256 3256 3256 3256 3256 3255 3255 3255 3254 3254 3253 3253 3252 3251 3250 3250 3249 3248 3247 3247 3246 3245 3244 3243 3242 3242 3241 3240 3240 3239 3238 3237
3215 3217 3218 3220 3221 3223 3225 3226 3228 3229 3230 3231 3232 3233 3234 3235 3236 3237 3238 3239 3239 3240 3241 3242 3243 3243 3244 3245 3246 3247 3247 3248 3249 3250 3250 3251 3251 3252 3252 3253 3253 3254 3254 3254 3254 3254 3254 3254 3254 3254 3254 3254 3254 3254 3254 3255 3255 3254 3254 3254 3253 3253 3252 3252 3251 3250 3249 3248 3248 3247 3246 3246 3245 3245 3244 3243 3242 3241 3240 3239 3239 3238 3238 3237 3236
3213 3215 3217 3218 3220 3222 3223 3225 3226 3227 3229 3230 3231 3232 3233 3234 3235 3236 3237 3238 3238 3239 3240 3240 3241 3242 3243 3244 3244 3245 3246 3247 3247 3248 3249 3249 3250 3250 3251 3251 3252 3252 3253 3253 3253 3253 3253 3253 3253 3253 3253 3253 3253 3253 3253 3253 3253 3253 3252 3252 3251 3251 3251 3250 3249 3249 3248 3247 3246 3246 3245 3244 3244 3243 3242 3241 3240 3239 3239 3238 3237 3237 3236 3235 3235
3212 3214 3215 3217 3218 3220 3222 3223 3224 3225 3227 3228 3229 3230 3231 3232 3233 3234 3235 3237 3237 3238 3239 3239 3239 3240 3242 3242 3243 3243 3244 3245 3245 3246 3247 3248 3248 3248 3249 3250 3250 3251 3251 3252 3252 3252 3252 3252 3251 3251 3251 3252 3252 3252 3252 3251 3251 3251 3251 3250 3250 3249 3249 3249 3248 3247 3246 3245 3245 3244 3243 3243 3242 3241 3240 3240 3239 3238 3238 3237 3236 3235 3234 3233 3234
3211 3212 3214 3215 3217 3219 3220 3221 3223 3224 3225 3226 3228 3229 3229 3231 3232 3232 3233 3235 3236 3236 3237 3238 3238 3239 3240 3241 3242 3242 3242 3242 3243 3244 3245 3246 3247 3247 3247 3248 3249 3249 3250 3250 3250 3250 3250 3250 3250 3250 3250 3250 3250 3250 3250 3250 3250 3249 3249 3249 3249 3248 3248 3247 3247 3246 3245 3244 3243 3242 3241 3241 3240 3240 3239 3238 3238 3237 3236 3235 3235 3234 3233 3232 3232
3208 3210 3212 3214 3215 3217 3219 3220 3221 3222 3223 3224 3226 3227 3228 3229 3230 3231 3232 3233 3234 3234 3235 3236 3237 3238 3238 3239 3240 3240 3240 3240 3240 3241 3243 3244 3244 3245 3245 3246 3247 3247 3248 3248 3249 3249 3249 3249 3249 3249 3249 3249 3248 3248 3248 3248 3248 3248 3248 3248 3247 3247 3246 3246 3245 3244 3243 3242 3242 3241 3240 3240 3239 3239 3238 3237 3236 3235 3235 3234 3233 3232 3231 3230 3230
3206 3207 3210 3212 3214 3216 3217 3218 3219 3220 3221 3222 3224 3225 3226 3226 3228 3229 3230 3231 3232 3233 3234 3235 3236 3236 3237 3237 3237 3237 3237 3237 3239 3239 3240 3241 3242 3243 3243 3244 3245 3245 3246 3246 3246 3247 3247 3247 3247 3247 3247 3246 3246 3246 3246 3246 3246 3246 3246 3246 3246 3245 3245 3244 3243 3242 3241 3240 3240 3240 3239 3239 3238 3238 3236 3235 3235 3234 3233 3233 3232 3230 3230 3229 3228
3203 3204 3206 3210 3213 3214 3215 3216 3217 3218 3219 3220 3221 3223 3224 3225 3225 3226 3227 3229 3230 3231 3232 3232 3233 3234 3234 3234 3233 3233 3234 3236 3237 3238 3239 3240 3240 3241 3241 3242 3242 3243 3243 3244 3244 3245 3245 3245 3245 3245 3245 3244 3244 3244 3244 3244 3244 3244 3244 3244 3243 3243 3242 3241 3240 3239 3239 3238 3238 3238 3238 3237 3236 3236 3235 3234 3233 3232 3232 3231 3230 3228 3227 3227 3226
3200 3201 3204 3207 3209 3211 3213 3213 3213 3214 3216 3218 3219 3220 3221 3222 3223 3224 3225 3226 3226 3228 3229 3230 3231 3231 3232 3232 3231 3231 3233 3234 3235 3236 3237 3238 3238 3238 3239 3239 3239 3240 3241 3241 3242 3242 3241 3242 3242 3243 3242 3242 3242 3242 3242 3242 3242 3242 3242 3242 3241 3241 3240 3238 3237 3237 3237 3236 3236 3236 3236 3235 3234 3234 3233 3232 3231 3230 3229 3228 3227 3226 3225 3224 3224
3198 3199 3202 3205 3207 3208 3210 3210 3210 3210 3212 3215 3216 3217 3218 3219 3219 3219 3220 3222 3224 3226 3227 3227 3228 3229 3230 3230 3230 3230 3232 3232 3233 3234 3235 3235 3236 3236 3236 3236 3237 3237 3238 3238 3238 3237 3238 3239 3240 3240 3240 3240 3240 3240 3240 3240 3239 3239 3239 3239 3239 3238 3237 3235 3235 3235 3235 3235 3234 3234 3234 3233 3232 3232 3231 3230 3229 3228 3226 3225 3225 3224 3222 3222 3221
3196 3198 3200 3201 3203 3205 3207 3207 3208 3209 3210 3212 3213 3215 3215 3215 3215 3215 3218 3221 3223 3224 3224 3225 3226 3228 3228 3228 3228 3229 3230 3230 3231 3231 3232 3233 3233 3233 3233 3234 3234 3235 3235 3235 3234 3234 3236 3237 3237 3238 3238 3238 3238 3238 3238 3238 3237 3237 3237 3237 3236 3236 3234 3233 3233 3233 3232 3232 3232 3231 3231 3230 3229 3229 3228 3228 3227 3226 3224 3223 3222 3221 3220 3219 3219
3193 3196 3198 3199 3200 3201 3203 3204 3205 3207 3209 3210 3211 3211 3211 3211 3212 3213 3216 3218 3219 3220 3222 3224 3225 3225 3225 3225 3226 3227 3227 3228 3228 3229 3229 3230 3230 3231 3231 3231 3231 3232 3232 3232 3232 3233 3234 3234 3234 3235 3235 3235 3235 3235 3235 3235 3234 3234 3234 3234 3233 3233 3231 3231 3231 3230 3229 3229 3228 3228 3227 3227 3226 3226 3225 3225 3224 3222 3221 3220 3219 3218 3217 3216 3215
3189 3191 3194 3195 3197 3197 3198 3199 3201 3203 3207 3208 3207 3206 3206 3207 3209 3209 3210 3212 3214 3216 3219 3220 3221 3222 3221 3221 3222 3224 3224 3225 3225 3225 3226 3226 3227 3227 3227 3228 3228 3229 3229 3229 3230 3230 3230 3231 3231 3232 3232 3232 3232 3232 3232 3231 3231 3230 3230 3230 3230 3229 3228 3228 3228 3227 3226 3226 3225 3224 3224 3223 3223 3223 3222 3222 3220 3219 3218 3217 3216 3215 3214 3213 3212
3186 3187 3189 3191 3193 3193 3194 3195 3197 3200 3202 3203 3203 3203 3203 3204 3205 3205 3205 3208 3210 3212 3214 3216 3217 3218 3217 3217 3219 3220 3221 3221 3221 3221 3222 3222 3223 3223 3224 3224 3225 3226 3226 3226 3227 3227 3227 3228 3228 3228 3229 3229 3229 3228 3228 3228 3227 3226 3226 3226 3226 3225 3225 3225 3225 3224 3223 3223 3222 3221 3221 3220 3220 3219 3219 3218 3218 3217 3216 3215 3214 3212 3211 3210 3209
3183 3184 3186 3187 3189 3189 3190 3191 3193 3196 3198 3198 3199 3199 3199 3199 3200 3201 3203 3205 3207 3209 3211 3213 3214 3214 3214 3214 3216 3217 3217 3217 3217 3217 3217 3218 3219 3219 3220 3221 3222 3222 3223 3223 3224 3224 3224 3224 3225 3225 3225 3225 3226 3225 3225 3224 3223 3223 3222 3222 3222 3221 3221 3221 3220 3219 3219 3219 3218 3217 3217 3217 3217 3216 3215 3215 3214 3213 3212 3212 3211 3210 3208 3207 3207
3180 3181 3182 3184 3185 3186 3187 3188 3190 3192 3194 3195 3195 3195 3195 3195 3196 3198 3201 3203 3204 3206 3208 3209 3210 3211 3211 3212 3213 3213 3214 3213 3214 3214 3214 3214 3215 3215 3216 3218 3219 3220 3220 3221 3221 3221 3221 3221 3221 3222 3221 3222 3222 3221 3221 3220 3220 3219 3219 3218 3218 3217 3217 3216 3216 3215 3215 3214 3214 3213 3213 3213 3213 3212 3212 3211 3210 3209 3209 3208 3207 3207 3205 3204 3204
3177 3178 3180 3182 3183 3184 3185 3186 3186 3188 3190 3192 3191 3191 3192 3193 3194 3195 3198 3199 3200 3202 3204 3206 3207 3208 3208 3209 3210 3210 3210 3210 3211 3211 3211 3211 3212 3213 3214 3216 3216 3217 3218 3218 3218 3218 3218 3218 3219 3219 3219 3219 3218 3218 3218 3218 3217 3217 3216 3215 3215 3214 3213 3213 3212 3211 3211 3210 3210 3209 3209 3209 3208 3208 3208 3207 3206 3206 3205 3205 3204 3203 3202 3201 3200
3176 3177 3179 3181 3182 3182 3182 3182 3183 3184 3187 3188 3188 3188 3190 3192 3192 3193 3195 3196 3197 3198 3201 3202 3203 3204 3205 3206 3206 3206 3207 3207 3208 3208 3208 3209 3210 3211 3212 3213 3214 3215 3215 3215 3215 3215 3216 3216 3216 3216 3216 3216 3216 3216 3215 3215 3215 3214 3213 3212 3212 3211 3211 3210 3209 3208 3208 3207 3206 3206 3206 3205 3205 3204 3204 3204 3203 3202 3202 3202 3201 3200 3199 3198 3197
3175 3175 3177 3179 3180 3181 3180 3180 3182 3183 3185 3186 3187 3187 3189 3192 3192 3192 3193 3194 3195 3197 3198 3199 3200 3201 3202 3203 3203 3204 3204 3205 3206 3206 3207 3207 3208 3210 3210 3211 3212 3212 3213 3213 3213 3214 3214 3214 3214 3214 3214 3214 3213 3213 3213 3212 3212 3211 3210 3209 3208 3208 3207 3207 3206 3206 3205 3204 3204 3203 3203 3203 3202 3202 3201 3201 3200 3200 3199 3199 3199 3198 3197 3196 3195
3174 3175 3176 3178 3179 3179 3179 3179 3181 3182 3183 3185 3186 3188 3189 3190 3190 3191 3192 3193 3194 3195 3197 3198 3199 3200 3200 3201 3202 3202 3203 3203 3204 3205 3205 3206 3207 3208 3208 3209 3209 3210 3210 3211 3211 3211 3211 3211 3211 3211 3211 3211 3210 3210 3209 3209 3208 3207 3207 3206 3205 3204 3203 3203 3203 3202 3201 3201 3201 3200 3200 3200 3199 3199 3199 3198 3197 3197 3196 3196 3196 3195 3194 3193 3192
3173 3174 3175 3176 3177 3178 3178 3178 3179 3181 3182 3183 3184 3186 3187 3188 3188 3189 3190 3191 3192 3194 3195 3197 3198 3198 3199 3200 3201 3201 3202 3202 3203 3204 3205 3205 3206 3206 3207 3207 3207 3208 3208 3208 3208 3208 3208 3208 3208 3208 3208 3208 3207 3206 3206 3205 3205 3204 3203 3202 3202 3201 3199 3199 3199 3199 3198 3198 3198 3197 3196 3196 3196 3196 3195 3195 3194 3194 3193 3193 3192 3192 3191 3190 3190
3172 3173 3174 3175 3176 3177 3177 3177 3178 3179 3179 3180 3182 3183 3184 3185 3187 3187 3188 3190 3191 3192 3194 3195 3196 3197 3198 3198 3199 3200 3201 3201 3202 3203 3203 3203 3204 3204 3205 3205 3205 3205 3205 3205 3205 3205 3205 3205 3204 3204 3204 3204 3203 3202 3202 3201 3200 3200 3199 3198 3198 3198 3196 3195 3195 3195 3195 3195 3194 3193 3193 3192 3192 3192 3192 3191 3191 3190 3189 3189 3188 3188 3188 3187 3186
3172 3172 3173 3174 3175 3175 3176 3177 3177 3177 3178 3179 3181 3182 3182 3184 3186 3186 3187 3189 3190 3191 3192 3193 3194 3195 3196 3197 3197 3198 3199 3200 3200 3201 3201 3201 3201 3201 3202 3202 3202 3201 3201 3201 3201 3201 3201 3200 3200 3200 3199 3199 3199 3198 3197 3196 3195 3195 3195 3195 3195 3194 3192 3191 3191 3192 3192 3192 3190 3189 3189 3189 3189 3188 3188 3188 3187 3187 3186 3186 3185 3185 3184 3183 3183
3171 3172 3172 3173 3174 3174 3175 3176 3176 3176 3177 3178 3179 3180 3182 3184 3185 3186 3186 3187 3188 3189 3190 3191 3192 3193 3194 3195 3195 3196 3197 3197 3197 3197 3198 3198 3198 3198 3198 3198 3198 3198 3198 3197 3197 3197 3196 3196 3196 3195 3195 3195 3195 3194 3193 3192 3191 3190 3191 3191 3191 3189 3188 3187 3188 3188 3188 3187 3186 3186 3186 3185 3185 3185 3185 3184 3184 3184 3183 3182 3182 3181 3181 3180 3179
3170 3170 3171 3172 3172 3173 3174 3175 3175 3175 3176 3177 3178 3179 3181 3183 3184 3184 3184 3185 3186 3187 3188 3189 3189 3191 3191 3192 3192 3193 3193 3194 3194 3194 3195 3195 3195 3194 3194 3194 3194 3194 3194 3194 3193 3193 3192 3192 3191 3191 3190 3190 3190 3189 3188 3187 3187 3186 3186 3186 3186 3185 3184 3184 3185 3185 3184 3183 3183 3182 3182 3182 3182 3181 3181 3181 3181 3180 3180 3179 3178 3178 3177 3177 3176
3169 3169 3170 3171 3171 3172 3173 3174 3174 3174 3174 3176 3177 3178 3179 3180 3181 3181 3182 3182 3183 3184 3185 3186 3186 3187 3188 3188 3188 3189 3189 3190 3190 3190 3191 3191 3190 3190 3190 3190 3190 3190 3189 3189 3189 3188 3188 3187 3187 3186 3186 3186 3185 3184 3184 3184 3183 3183 3182 3182 3181 3180 3180 3180 3181 3180 3179 3179 3179 3179 3178 3178 3178 3178 3177 3177 3177 3176 3176 3175 3175 3174 3174 3173 3172
3168 3169 3170 3170 3170 3171 3172 3172 3173 3172 3173 3174 3175 3176 3177 3177 3178 3178 3179 3180 3181 3181 3182 3182 3182 3183 3184 3185 3184 3184 3185 3186 3186 3186 3186 3186 3186 3186 3186 3185 3185 3185 3185 3185 3184 3184 3183 3183 3182 3182 3181 3181 3180 3180 3180 3179 3179 3178 3178 3177 3177 3176 3176 3176 3177 3176 3175 3175 3175 3175 3174 3174 3174 3174 3173 3173 3173 3172 3172 3171 3171 3170 3170 3169 3168
3168 3168 3169 3169 3169 3169 3170 3171 3171 3171 3171 3172 3173 3174 3174 3175 3175 3176 3176 3177 3177 3178 3178 3178 3179 3179 3180 3180 3181 3181 3181 3181 3181 3181 3181 3181 3181 3181 3181 3181 3181 3180 3180 3180 3180 3180 3179 3179 3178 3177 3177 3177 3176 3176 3176 3175 3175 3174 3174 3173 3173 3172 3172 3172 3173 3172 3172 3172 3171 3171 3171 3171 3170 3170 3169 3169 3169 3168 3167 3167 3166 3166 3165 3165 3164
3166 3167 3167 3168 3168 3168 3169 3169 3169 3169 3170 3170 3171 3171 3171 3171 3172 3173 3173 3174 3174 3174 3175 3174 3174 3175 3176 3176 3177 3177 3177 3177 3177 3177 3177 3177 3177 3177 3177 3177 3177 3176 3176 3176 3176 3176 3175 3175 3174 3174 3173 3173 3172 3172 3171 3171 3171 3170 3170 3170 3169 3169 3169 3169 3169 3168 3168 3168 3167 3167 3167 3166 3166 3166 3165 3165 3164 3164 3163 3162 3162 3161 3160 3159 3159
3165 3166 3166 3166 3166 3167 3167 3167 3167 3168 3168 3168 3169 3169 3169 3169 3169 3169 3170 3170 3170 3171 3171 3171 3171 3171 3172 3172 3172 3172 3172 3173 3173 3173 3172 3172 3173 3173 3173 3173 3173 3172 3172 3172 3172 3172 3171 3171 3170 3170 3169 3169 3168 3168 3167 3167 3167 3166 3166 3166 3166 3166 3166 3165 3165 3165 3165 3164 3164 3163 3163 3162 3162 3161 3161 3160 3160 3159 3159 3158 3157 3156 3155 3154 3154
3163 3163 3164 3164 3165 3165 3165 3166 3166 3166 3166 3166 3166 3166 3166 3167 3167 3167 3167 3167 3167 3167 3167 3168 3168 3169 3168 3168 3168 3168 3169 3169 3169 3169 3169 3169 3169 3169 3169 3169 3169 3168 3168 3168 3168 3167 3167 3166 3166 3166 3165 3165 3164 3164 3164 3163 3163 3162 3162 3162 3162 3162 3162 3161 3161 3160 3160 3160 3160 3159 3158 3158 3158 3157 3157 3156 3156 3155 3154 3153 3152 3151 3151 3150 3148
3159 3160 3161 3162 3162 3163 3163 3163 3163 3163 3163 3163 3163 3163 3163 3163 3164 3164 3164 3164 3164 3164 3164 3164 3164 3165 3165 3165 3165 3165 3166 3166 3165 3165 3165 3165 3165 3165 3166 3166 3165 3164 3164 3163 3163 3162 3162 3162 3162 3162 3161 3161 3160 3160 3160 3159 3159 3159 3158 3158 3157 3157 3157 3157 3157 3156 3156 3155 3155 3154 3153 3153 3153 3153 3152 3151 3151 3150 3149 3148 3147 3147 3145 3144 3143
3155 3157 3158 3159 3159 3159 3160 3160 3161 3161 3161 3161 3161 3161 3160 3160 3161 3161 3161 3161 3161 3161 3161 3161 3160 3160 3160 3161 3161 3162 3163 3162 3161 3161 3161 3161 3161 3162 3162 3162 3161 3161 3160 3159 3158 3158 3157 3158 3158 3157 3157 3156 3156 3156 3155 3155 3155 3154 3154 3154 3153 3153 3153 3152 3152 3151 3151 3150 3150 3149 3149 3148 3148 3147 3147 3147 3146 3145 3144 3143 3141 3140 3140 3138 3137
3152 3153 3154 3154 3155 3156 3156 3157 3157 3157 3157 3157 3158 3158 3158 3158 3158 3158 3158 3158 3157 3157 3157 3157 3157 3156 3156 3157 3158 3158 3159 3159 3158 3158 3158 3157 3157 3157 3158 3158 3157 3156 3155 3154 3154 3154 3153 3154 3154 3153 3152 3152 3152 3151 3151 3151 3150 3150 3149 3149 3149 3148 3148 3147 3147 3146 3145 3144 3144 3144 3143 3143 3142 3142 3141 3140 3139 3138 3137 3136 3135 3134 3133 3132 3131
3148 3149 3149 3150 3150 3151 3152 3152 3153 3153 3153 3154 3154 3154 3155 3155 3155 3155 3155 3155 3154 3154 3154 3153 3152 3152 3153 3153 3153 3153 3154 3154 3154 3154 3154 3154 3153 3153 3153 3152 3152 3151 3151 3150 3150 3150 3150 3150 3150 3149 3148 3147 3147 3146 3146 3146 3146 3145 3145 3144 3144 3143 3143 3142 3141 3140 3140 3139 3138 3138 3137 3137 3137 3136 3135 3133 3133 3132 3131 3130 3129 3128 3127 3126 3125
3143 3144 3145 3145 3147 3147 3148 3148 3148 3149 3149 3150 3150 3151 3151 3151 3152 3152 3152 3151 3151 3151 3150 3149 3149 3149 3150 3149 3149 3149 3149 3149 3150 3149 3149 3149 3149 3148 3147 3147 3147 3146 3146 3145 3145 3146 3146 3145 3145 3144 3144 3143 3142 3141 3141 3141 3141 3140 3140 3139 3138 3138 3137 3137 3136 3135 3134 3134 3133 3133 3132 3132 3131 3129 3128 3128 3127 3126 3125 3124 3123 3122 3121 3120 3119
3139 3139 3140 3141 3143 3143 3143 3144 3144 3145 3145 3146 3146 3147 3147 3147 3148 3148 3148 3148 3148 3147 3147 3145 3145 3146 3146 3145 3146 3146 3146 3145 3145 3145 3144 3144 3144 3143 3142 3142 3142 3141 3141 3140 3141 3141 3141 3140 3140 3139 3139 3138 3138 3137 3136 3136 3136 3135 3135 3134 3134 3133 3132 3131 3130 3130 3130 3129 3129 3128 3127 3125 3124 3124 3123 3122 3122 3120 3119 3118 3117 3116 3115 3114 3113
3134 3134 3135 3136 3137 3138 3138 3139 3140 3140 3141 3142 3142 3143 3143 3143 3143 3143 3143 3143 3143 3144 3143 3142 3141 3141 3141 3141 3141 3142 3142 3141 3141 3141 3140 3140 3140 3139 3138 3137 3137 3137 3136 3136 3136 3136 3136 3135 3135 3134 3134 3133 3133 3133 3132 3131 3131 3131 3130 3130 3129 3128 3127 3126 3126 3125 3125 3124 3123 3122 3121 3120 3119 3118 3118 3117 3116 3115 3114 3112 3111 3110 3109 3108 3107
3130 3130 3131 3131 3131 3132 3133 3133 3134 3135 3137 3137 3138 3138 3139 3139 3139 3139 3139 3139 3139 3139 3139 3139 3138 3136 3136 3136 3136 3137 3137 3137 3136 3136 3135 3135 3135 3134 3133 3133 3132 3132 3131 3131 3131 3130 3130 3130 3129 3129 3128 3128 3128 3127 3126 3126 3125 3125 3125 3124 3123 3122 3121 3121 3121 3120 3120 3119 3118 3117 3115 3114 3113 3113 3112 3111 3110 3109 3108 3107 3106 3105 3104 3103 3102
3125 3125 3126 3126 3126 3126 3127 3127 3128 3129 3130 3131 3132 3132 3133 3133 3133 3133 3134 3134 3134 3134 3134 3134 3133 3132 3132 3131 3131 3131 3131 3132 3132 3131 3131 3130 3130 3129 3128 3128 3127 3126 3126 3126 3125 3125 3125 3125 3124 3124 3123 3123 3122 3121 3121 3120 3120 3119 3118 3118 3117 3116 3116 3115 3115 3114 3114 3112 3111 3110 3109 3108 3108 3107 3106 3105 3104 3103 3102 3101 3100 3099 3098 3097 3096
3118 3118 3119 3120 3120 3119 3120 3122 3123 3124 3124 3125 3126 3126 3126 3126 3127 3127 3128 3128 3128 3128 3128 3128 3128 3128 3127 3126 3126 3125 3125 3126 3127 3126 3126 3125 3125 3124 3124 3123 3122 3122 3121 3121 3121 3120 3120 3119 3119 3119 3118 3117 3117 3116 3116 3115 3114 3113 3112 3112 3111 3111 3110 3110 3109 3109 3107 3106 3105 3104 3103 3102 3102 3101 3100 3099 3098 3097 3096 3095 3094 3093 3092 3091 3090
3114 3114 3115 3115 3115 3115 3116 3118 3118 3119 3119 3121 3121 3121 3121 3121 3120 3120 3121 3122 3123 3123 3123 3122 3122 3122 3122 3121 3121 3120 3120 3120 3121 3121 3121 3120 3120 3119 3118 3118 3117 3117 3117 3116 3116 3115 3115 3114 3114 3113 3112 3112 3112 3111 3111 3110 3109 3108 3107 3107 3106 3106 3105 3105 3104 3103 3101 3100 3099 3099 3098 3097 3096 3095 3094 3093 3092 3092 3091 3090 3089 3087 3086 3085 3083
3111 3112 3112 3112 3112 3112 3113 3114 3114 3115 3115 3116 3116 3116 3116 3116 3116 3115 3115 3116 3117 3118 3118 3118 3118 3117 3117 3116 3116 3115 3114 3114 3114 3115 3115 3114 3113 3113 3112 3112 3112 3111 3111 3111 3110 3110 3109 3108 3108 3107 3107 3106 3106 3105 3105 3104 3103 3102 3102 3102 3101 3101 3100 3099 3098 3097 3096 3094 3094 3093 3092 3091 3091 3090 3089 3088 3087 3086 3085 3084 3083 3081 3080 3078 3077
3105 3106 3107 3107 3108 3109 3108 3108 3109 3110 3111 3111 3111 3111 3111 3111 3111 3111 3111 3111 3111 3112 3113 3113 3113 3112 3112 3111 3111 3110 3110 3109 3108 3108 3108 3108 3107 3107 3106 3106 3105 3105 3105 3105 3104 3104 3103 3102 3102 3101 3101 3100 3100 3099 3099 3098 3097 3096 3096 3096 3095 3095 3094 3093 3091 3091 3090 3089 3088 3087 3087 3086 3085 3084 3083 3082 3081 3080 3079 3078 3076 3075 3073 3071 3070
3101 3101 3102 3102 3103 3104 3104 3103 3104 3104 3105 3105 3106 3106 3106 3106 3106 3106 3106 3106 3106 3106 3107 3107 3107 3107 3107 3106 3106 3105 3104 3104 3103 3102 3102 3102 3102 3101 3101 3100 3100 3099 3099 3099 3098 3098 3097 3096 3096 3095 3095 3094 3094 3093 3092 3092 3091 3090 3090 3090 3089 3088 3088 3087 3086 3085 3084 3083 3083 3082 3081 3081 3080 3079 3078 3076 3075 3074 3072 3071 3069 3067 3066 3063 3062
3097 3097 3097 3098 3098 3098 3099 3099 3099 3099 3099 3100 3101 3101 3101 3101 3102 3102 3102 3102 3102 3102 3101 3102 3101 3101 3101 3101 3100 3099 3099 3098 3097 3097 3097 3097 3096 3096 3095 3095 3094 3094 3094 3093 3092 3092 3091 3091 3090 3089 3089 3088 3087 3087 3086 3085 3085 3085 3084 3084 3083 3082 3082 3081 3080 3080 3079 3078 3077 3077 3076 3075 3074 3073 3071 3070 3068 3067 3065 3063 3061 3059 3057 3055 3053